Starlink 4118

operational
NORAD ID: 53538 Int'l Des: 2022-101 Owner: SPXS Country: US Constellation: starlink
LEOCIRCULAR

About Starlink 4118

Description loading...

Live Position

Loading 3D Globe...

Upcoming Passes

Altitude History

Altitude vs Time

uPlot chart will show altitude changes over time

Two-Line Element Set

1 53538U 22101M 25304.27376911 .00001064 00000-0 84958-4 0 9999
2 53538 53.2173 285.0930 0001441 91.9094 268.2063 15.08839622177451
Epoch: Oct 31, 2025 • Age: 11 hours

Current Status

Altitude 543.5 km
Velocity 7.59 km/s
Sub-Earth Point -12.88°S, 31.46°W
Launch Date Aug 19, 2022
Age 3.1 years
Type internet

Technical Details

Classification Payload
Mass 300.00 kg
Dry Mass 290.00 kg
Total Mass 300.00 kg
Length 0.20 m
Diameter 2.80 m
Span 9.00 m
Shape Box + pan
Manufacturer SPXS
Bus Type Starlink
Phase Status In Orbit
Owner/State SPXS/US

Large Constellations

Loading constellations...